| time (UTC) | temp F | wind direction | speed knots | gust knots | rain 1hr in | rain 24hr in | rain mn in | humidity % | barometer mb |
| 20260508090307 | 41 | 180 | 7.0 | 0.0 | 0.00 | 0.00 | 0.00 | 52 | 1021.0 |
| 20260508083307 | 39 | 140 | 6.1 | 0.0 | 0.00 | 0.00 | 0.00 | 55 | 1022.0 |
| 20260508073307 | 37 | 70 | 5.2 | 0.0 | 0.00 | 0.00 | 0.00 | 59 | 1022.0 |
| 20260508070306 | 35 | 0 | 1.7 | 0.0 | 0.00 | 0.00 | 0.00 | 64 | 1022.0 |
| 20260508063306 | 35 | 20 | 2.6 | 0.0 | 0.00 | 0.00 | 0.00 | 64 | 1021.0 |
| 20260508060306 | 33 | 0 | 1.7 | 0.0 | 0.00 | 0.00 | 0.00 | 80 | 1021.0 |
| 20260508053307 | 32 | 0 | 1.7 | 0.0 | 0.00 | 0.00 | 0.00 | 92 | 1021.0 |
| 20260508050306 | 30 | 0 | 1.7 | 0.0 | 0.00 | 0.00 | 0.00 | 10 | 1021.0 |
| 20260508043306 | 28 | 0 | 2.6 | 0.0 | 0.00 | 0.00 | 0.00 | 10 | 1021.0 |
| 20260508040307 | 26 | 310 | 2.6 | 0.0 | 0.00 | 0.00 | 0.00 | 10 | 1021.0 |
| 20260508030306 | 28 | 0 | 2.6 | 0.0 | 0.00 | 0.00 | 0.00 | 10 | 1021.0 |
| 20260508023307 | 28 | 360 | 1.7 | 0.0 | 0.00 | 0.00 | 0.00 | 10 | 1020.0 |
| 20260508020307 | 30 | 0 | 0.9 | 0.0 | 0.00 | 0.00 | 0.00 | 10 | 1020.0 |
| 20260508013307 | 30 | 0 | 0.9 | 0.0 | 0.00 | 0.00 | 0.00 | 10 | 1020.0 |
| 20260508010306 | 30 | 0 | 1.7 | 0.0 | 0.00 | 0.00 | 0.00 | 10 | 1020.0 |
| 20260508003306 | 32 | 0 | 0.9 | 0.0 | 0.00 | 0.00 | 0.00 | 92 | 1019.0 |
| 20260508000306 | 32 | 0 | 1.7 | 0.0 | 0.00 | 0.00 | 0.00 | 10 | 1019.0 |
| 20260507233306 | 32 | 210 | 1.7 | 0.0 | 0.00 | 0.00 | 0.00 | 10 | 1019.0 |
| 20260507230306 | 32 | 0 | 0.0 | 0.0 | 0.00 | 0.00 | 0.00 | 10 | 1019.0 |
| 20260507223306 | 32 | 0 | 0.0 | 0.0 | 0.00 | 0.00 | 0.00 | 10 | 1019.0 |
| 20260507220306 | 32 | 10 | 2.6 | 0.0 | 0.00 | 0.00 | 0.00 | 10 | 1018.0 |
| 20260507213306 | 32 | 330 | 4.3 | 0.0 | 0.00 | 0.00 | 0.00 | 10 | 1018.0 |
| 20260507210307 | 32 | 0 | 2.6 | 0.0 | 0.00 | 0.00 | 0.00 | 86 | 1018.0 |
| 20260507203307 | 33 | 0 | 0.9 | 0.0 | 0.00 | 0.00 | 0.00 | 74 | 1017.0 |
| 20260507200305 | 33 | 0 | 1.7 | 0.0 | 0.00 | 0.00 | 0.00 | 74 | 1017.0 |
| 20260507193307 | 35 | 260 | 2.6 | 0.0 | 0.00 | 0.00 | 0.00 | 69 | 1017.0 |
| 20260507190307 | 37 | 310 | 2.6 | 0.0 | 0.00 | 0.00 | 0.00 | 69 | 1017.0 |
| 20260507183307 | 35 | 310 | 4.3 | 0.0 | 0.00 | 0.00 | 0.00 | 69 | 1017.0 |
| 20260507180310 | 37 | 290 | 7.0 | 0.0 | 0.00 | 0.00 | 0.00 | 64 | 1016.0 |
| 20260507173308 | 37 | 320 | 5.2 | 0.0 | 0.00 | 0.00 | 0.00 | 64 | 1016.0 |
| 20260507170307 | 39 | 300 | 6.1 | 0.0 | 0.00 | 0.00 | 0.00 | 64 | 1016.0 |
| 20260507163307 | 37 | 260 | 6.1 | 0.0 | 0.00 | 0.00 | 0.00 | 64 | 1016.0 |
| 20260507160308 | 39 | 290 | 7.0 | 0.0 | 0.00 | 0.00 | 0.00 | 64 | 1016.0 |
| 20260507153308 | 39 | 280 | 6.1 | 0.0 | 0.00 | 0.00 | 0.00 | 55 | 1015.0 |
| 20260507150308 | 41 | 320 | 7.0 | 0.0 | 0.00 | 0.00 | 0.00 | 52 | 1015.0 |
| 20260507143307 | 39 | 320 | 7.0 | 0.0 | 0.00 | 0.00 | 0.00 | 51 | 1015.0 |
| 20260507140308 | 39 | 320 | 7.0 | 0.0 | 0.00 | 0.00 | 0.00 | 55 | 1015.0 |
| 20260507133307 | 39 | 290 | 6.1 | 0.0 | 0.00 | 0.00 | 0.00 | 55 | 1015.0 |
| 20260507130307 | 39 | 320 | 7.0 | 0.0 | 0.00 | 0.00 | 0.00 | 60 | 1015.0 |
| 20260507123308 | 39 | 320 | 6.1 | 0.0 | 0.00 | 0.00 | 0.00 | 60 | 1014.0 |
| 20260507120307 | 39 | 320 | 6.1 | 0.0 | 0.00 | 0.00 | 0.00 | 51 | 1014.0 |
| 20260507113308 | 41 | 320 | 7.0 | 0.0 | 0.00 | 0.00 | 0.00 | 52 | 1014.0 |
| 20260507110307 | 39 | 270 | 5.2 | 0.0 | 0.00 | 0.00 | 0.00 | 48 | 1014.0 |
| 20260507103307 | 39 | 240 | 5.2 | 0.0 | 0.00 | 0.00 | 0.00 | 51 | 1014.0 |
| 20260507100308 | 39 | 270 | 4.3 | 0.0 | 0.00 | 0.00 | 0.00 | 51 | 1013.0 |
| 20260507093307 | 37 | 320 | 6.1 | 0.0 | 0.00 | 0.00 | 0.00 | 51 | 1013.0 |